World > North America > United States > Florida

Hourly Sewalls Point, FL Regional Weather

Feedback E-mail the Weather

Latest News

Sewalls Point, FL Weather Maps

°F °C°F °C
Sewalls Point Weather Map
UTC Time: 5/26/2022, 15:28
Your Time:

Sewalls Point, FL Regional Weather

Expires:202205261500;;609812
ASUS42 KTBW 261416
RWRFL 
FLORIDA REGIONAL WEATHER ROUNDUP
NATIONAL WEATHER SERVICE TAMPA BAY RUSKIN FL
1000 AM EDT THU MAY 26 2022

NOTE: "FAIR" INDICATES FEW OR NO CLOUDS BELOW 12,000 FEET WITH NO
SIGNIFICANT WEATHER AND/OR OBSTRUCTIONS TO VISIBILITY.


FLZ041-047-054-059-064-141-147-261500-
EAST CENTRAL FLORIDA
  
CITY           SKY/WX    TMP DP  RH WIND       PRES   REMARKS
ORMOND BEACH   MOSUNNY   81  70  69 S12       30.14S                  
DAYTONA BEACH  PTSUNNY   83  69  62 SE7       30.14S                  
DELAND         MOSUNNY   82  71  69 SE12      30.15S                  
NEW SMYRNA BEA MOSUNNY   82  68  61 S12       30.13S                  
TITUSVILLE     MOSUNNY   86  70  58 S12       30.14S                  
MELBOURNE      MOSUNNY   83  68  60 SE14G20   30.13S                  
VERO BEACH     SUNNY     84  69  60 SE15      30.14F                  
FT PIERCE      SUNNY     83  67  58 SE17      30.13F                  

STATION/POSITION SKY/WX   TEMP    WIND        PRES    WAVE   SWELL
                          AIR SEA DIR/SP/G            HT/PER HT/PER
                          (F)     (DEG/KT/KT) (MB)    (FT/S) (FT/S)
28.5N   80.2W              80 80  140/ 14/ 17 1019.7S   3/ 5   2/11
28.9N   78.5W              79 80  110/ 12/ 16 1021.8R   3/11   2/11
TRIDENT PIER               83 84  150/  7/ 11 1019.5
28.4N   80.5W                 78                N/A     3/ 5
27.6N   80.2W                 74                N/A     3/ 5

$$

SKY/WX - Weather  TMP - Temperature  DP - Dew Point  RH - Humidity
WIND - Wind Direction/Speed PRES - Barometric Pressure VSB - Visibility
WCI - Wind Chill Index E13G22 Wind - East Wind 13 mph/Gusts of 22 mph

Trending Headlines

Sewalls Point Radar Loop



Sewalls Point Quick Facts


National Two Day Weather Forecast


E-mail the Sewalls Point Weather Forecast

Voice your opinion or tell us about page issues...